FW9328 Weather Reports


Display with metric or nautical units.
time (UTC)temp
F
wind
direction
speed
MPH
gust
MPH
rain 1hr
in
rain 24hr
in
rain mn
in
humidity
%
barometer
mb
20220812191043 88 290 2.0 6.0 0.00 0.00 0.00 35 1024.6
20220812190541 89 267 1.0 5.0 0.00 0.00 0.00 34 1024.7
20220812190116 88 352 1.0 6.0 0.00 0.00 0.00 36 1024.8
20220812185542 88 360 0.0 6.0 0.00 0.00 0.00 36 1024.7
20220812185042 87 45 2.0 6.0 0.00 0.00 0.00 38 1024.7
20220812184556 87 341 1.0 5.0 0.00 0.00 0.00 36 1024.7
20220812184044 87 259 2.0 6.0 0.00 0.00 0.00 36 1024.8
20220812183541 87 0 2.0 6.0 0.00 0.00 0.00 38 1024.8
20220812183103 86 346 0.0 3.0 0.00 0.00 0.00 38 1024.9
20220812182542 86 0 1.0 5.0 0.00 0.00 0.00 38 1025.0
20220812182043 86 53 1.0 10.0 0.00 0.00 0.00 38 1025.1
20220812181608 86 51 3.0 10.0 0.00 0.00 0.00 37 1025.2
20220812181046 85 96 3.0 9.0 0.00 0.00 0.00 39 1025.1
20220812180545 85 64 3.0 11.0 0.00 0.00 0.00 40 1025.2
20220812180100 85 34 4.0 11.0 0.00 0.00 0.00 39 1025.1
20220812175542 85 32 3.0 10.0 0.00 0.00 0.00 41 1025.2
20220812175043 85 32 2.0 9.0 0.00 0.00 0.00 42 1025.3
20220812174600 84 5 4.0 9.0 0.00 0.00 0.00 41 1025.3
20220812174043 84 349 3.0 8.0 0.00 0.00 0.00 41 1025.3
20220812173540 84 42 3.0 8.0 0.00 0.00 0.00 42 1025.5
20220812173103 84 5 3.0 10.0 0.00 0.00 0.00 42 1025.5
20220812172540 83 54 4.0 10.0 0.00 0.00 0.00 40 1025.6
20220812172046 83 66 3.0 9.0 0.00 0.00 0.00 41 1025.6
20220812171605 83 20 4.0 10.0 0.00 0.00 0.00 40 1025.7
20220812171039 83 35 2.0 10.0 0.00 0.00 0.00 41 1025.7
20220812170546 83 49 4.0 10.0 0.00 0.00 0.00 41 1025.8
20220812170127 83 57 3.0 11.0 0.00 0.00 0.00 41 1025.8
20220812165542 83 20 4.0 11.0 0.00 0.00 0.00 41 1026.0
20220812165043 82 60 3.0 9.0 0.00 0.00 0.00 40 1026.0
20220812164604 82 352 2.0 8.0 0.00 0.00 0.00 41 1026.1
20220812164048 82 51 3.0 8.0 0.00 0.00 0.00 41 1026.0
20220812163542 82 271 4.0 9.0 0.00 0.00 0.00 41 1026.1
20220812163107 82 32 3.0 9.0 0.00 0.00 0.00 43 1026.2
20220812162543 81 345 3.0 9.0 0.00 0.00 0.00 43 1026.1
20220812162044 81 299 3.0 9.0 0.00 0.00 0.00 43 1026.1
20220812161559 81 29 1.0 11.0 0.00 0.00 0.00 44 1026.1
20220812161042 81 352 3.0 11.0 0.00 0.00 0.00 44 1026.2
20220812160544 80 41 1.0 6.0 0.00 0.00 0.00 43 1026.2
20220812160106 80 39 0.0 4.0 0.00 0.00 0.00 45 1026.2
20220812155543 80 323 1.0 9.0 0.00 0.00 0.00 44 1026.3
20220812155042 79 32 4.0 9.0 0.00 0.00 0.00 44 1026.2
20220812154605 79 36 3.0 8.0 0.00 0.00 0.00 44 1026.2
20220812154042 78 18 2.0 7.0 0.00 0.00 0.00 43 1026.1
20220812153542 78 25 0.0 5.0 0.00 0.00 0.00 46 1026.2
20220812153058 78 44 1.0 3.0 0.00 0.00 0.00 48 1026.2
20220812152541 77 0 1.0 3.0 0.00 0.00 0.00 47 1026.2
20220812152042 77 5 0.0 3.0 0.00 0.00 0.00 45 1026.4
20220812151605 77 84 0.0 3.0 0.00 0.00 0.00 46 1026.2
20220812151042 76 105 0.0 3.0 0.00 0.00 0.00 47 1026.2
20220812150542 76 0 0.0 3.0 0.00 0.00 0.00 51 1026.2
20220812150107 75 0 1.0 3.0 0.00 0.00 0.00 48 1026.2
20220812145545 74 117 0.0 3.0 0.00 0.00 0.00 51 1026.2
20220812145043 74 0 0.0 2.0 0.00 0.00 0.00 54 1026.3
20220812144557 73 0 0.0 2.0 0.00 0.00 0.00 52 1026.3
20220812144043 72 0 0.0 2.0 0.00 0.00 0.00 53 1026.3
20220812143552 72 0 0.0 2.0 0.00 0.00 0.00 56 1026.3
20220812143103 71 0 0.0 2.0 0.00 0.00 0.00 55 1026.1
20220812142541 71 0 0.0 1.0 0.00 0.00 0.00 55 1026.0
20220812142042 70 0 0.0 3.0 0.00 0.00 0.00 58 1026.0
20220812141626 70 162 0.0 3.0 0.00 0.00 0.00 57 1026.0
20220812141045 69 0 0.0 3.0 0.00 0.00 0.00 59 1025.9
20220812140546 69 0 0.0 3.0 0.00 0.00 0.00 60 1026.0
20220812140100 68 0 0.0 2.0 0.00 0.00 0.00 67 1026.0
20220812135543 67 0 0.0 1.0 0.00 0.00 0.00 62 1025.9
20220812135051 67 0 0.0 0.0 0.00 0.00 0.00 64 1025.9
20220812134608 66 0 0.0 3.0 0.00 0.00 0.00 63 1025.9
20220812134047 66 0 0.0 3.0 0.00 0.00 0.00 68 1025.8
20220812133543 65 28 0.0 4.0 0.00 0.00 0.00 65 1025.8
20220812133111 65 28 2.0 5.0 0.00 0.00 0.00 65 1025.7
20220812132541 65 0 0.0 6.0 0.00 0.00 0.00 66 1025.7
20220812132041 64 182 3.0 6.0 0.00 0.00 0.00 66 1025.5
20220812131618 64 214 0.0 2.0 0.00 0.00 0.00 69 1025.5
20220812131049 63 232 1.0 2.0 0.00 0.00 0.00 70 1025.6
20220812130541 63 0 0.0 2.0 0.00 0.00 0.00 70 1025.7
20220812130113 63 273 0.0 1.0 0.00 0.00 0.00 69 1025.6
20220812125541 63 0 0.0 1.0 0.00 0.00 0.00 69 1025.7
20220812125045 63 0 0.0 1.0 0.00 0.00 0.00 69 1025.6
20220812124604 63 296 0.0 1.0 0.00 0.00 0.00 68 1025.7
20220812124041 63 0 0.0 1.0 0.00 0.00 0.00 67 1025.6
20220812123544 63 296 0.0 1.0 0.00 0.00 0.00 68 1025.5
20220812123104 63 0 0.0 1.0 0.00 0.00 0.00 69 1025.6
20220812122544 63 0 0.0 2.0 0.00 0.00 0.00 68 1025.5
20220812122044 63 0 0.0 2.0 0.00 0.00 0.00 67 1025.5
20220812121607 63 0 0.0 2.0 0.00 0.00 0.00 67 1025.4
20220812121041 63 276 1.0 2.0 0.00 0.00 0.00 67 1025.2
20220812120543 63 0 0.0 6.0 0.00 0.00 0.00 67 1025.1
20220812120126 63 259 2.0 6.0 0.00 0.00 0.00 67 1025.1
20220812115549 63 292 1.0 4.0 0.00 0.00 0.00 66 1024.9
20220812115040 64 360 0.0 3.0 0.00 0.00 0.00 65 1024.8
20220812114628 64 360 0.0 5.0 0.00 0.00 0.00 65 1024.7
20220812114047 64 360 1.0 5.0 0.00 0.00 0.00 63 1024.6
20220812113543 64 340 2.0 5.0 0.00 0.00 0.00 63 1024.5
20220812113115 64 350 1.0 2.0 0.00 0.00 0.00 63 1024.2
20220812112541 64 360 1.0 2.0 0.00 0.00 0.00 63 1024.1
20220812112048 64 321 1.0 2.0 0.00 0.00 0.00 64 1024.0
20220812111606 64 227 0.0 2.0 0.00 0.00 0.00 63 1023.9
20220812111047 64 0 0.0 1.0 0.00 0.00 0.00 67 1023.8
20220812110541 64 0 0.0 0.0 0.00 0.00 0.00 66 1023.7
20220812110110 63 0 0.0 0.0 0.00 0.00 0.00 61 1023.7
20220812105540 64 0 0.0 1.0 0.00 0.00 0.00 63 1023.7
20220812105041 64 0 0.0 2.0 0.00 0.00 0.00 62 1023.8
20220812104618 64 0 0.0 2.0 0.00 0.00 0.00 63 1023.7
20220812104043 64 227 0.0 1.0 0.00 0.00 0.00 63 1023.7
20220812103545 64 0 0.0 2.0 0.00 0.00 0.00 64 1023.7
20220812103113 64 0 0.0 2.0 0.00 0.00 0.00 62 1023.7
20220812102541 64 0 0.0 2.0 0.00 0.00 0.00 63 1023.7
20220812102041 64 0 0.0 2.0 0.00 0.00 0.00 62 1023.7
20220812101603 64 0 0.0 2.0 0.00 0.00 0.00 64 1023.9
20220812101043 64 0 0.0 1.0 0.00 0.00 0.00 65 1023.9
20220812100540 64 0 0.0 2.0 0.00 0.00 0.00 63 1024.0
20220812100140 65 0 0.0 3.0 0.00 0.00 0.00 62 1024.0
20220812095541 65 335 1.0 3.0 0.00 0.00 0.00 62 1023.8
20220812095041 65 325 0.0 2.0 0.00 0.00 0.00 63 1023.7
20220812094601 65 231 1.0 2.0 0.00 0.00 0.00 59 1023.7
20220812094041 65 231 0.0 2.0 0.00 0.00 0.00 61 1023.6
20220812093541 65 231 0.0 1.0 0.00 0.00 0.00 60 1023.6
20220812093100 65 0 0.0 0.0 0.00 0.00 0.00 62 1023.5
20220812092545 65 0 0.0 1.0 0.00 0.00 0.00 63 1023.4
20220812092041 65 0 0.0 1.0 0.00 0.00 0.00 63 1023.4
20220812091610 65 0 0.0 2.0 0.00 0.00 0.00 62 1023.2
20220812091042 65 0 0.0 2.0 0.00 0.00 0.00 61 1023.2
20220812090542 65 0 0.0 1.0 0.00 0.00 0.00 62 1023.3
20220812090104 65 0 0.0 1.0 0.00 0.00 0.00 60 1023.4
20220812085541 65 0 0.0 2.0 0.00 0.00 0.00 61 1023.4
20220812085041 65 0 0.0 2.0 0.00 0.00 0.00 59 1023.3
20220812084708 65 0 0.0 2.0 0.00 0.00 0.00 60 1023.4
20220812084041 66 231 0.0 2.0 0.00 0.00 0.00 62 1023.3
20220812083541 66 231 0.0 1.0 0.00 0.00 0.00 63 1023.2
20220812083108 66 0 0.0 2.0 0.00 0.00 0.00 63 1023.2
20220812082544 66 0 0.0 2.0 0.00 0.00 0.00 62 1023.0
20220812082044 66 0 0.0 2.0 0.00 0.00 0.00 61 1023.1
20220812081559 67 0 0.0 2.0 0.00 0.00 0.00 61 1023.0
20220812081044 67 0 0.0 2.0 0.00 0.00 0.00 60 1023.0
20220812080542 67 0 0.0 2.0 0.00 0.00 0.00 58 1023.0
20220812080112 67 294 0.0 2.0 0.00 0.00 0.00 59 1023.0
20220812075540 67 294 0.0 2.0 0.00 0.00 0.00 59 1023.0
20220812075043 67 0 0.0 1.0 0.00 0.00 0.00 59 1023.0
20220812074600 67 0 0.0 1.0 0.00 0.00 0.00 58 1023.0
20220812074041 67 294 0.0 1.0 0.00 0.00 0.00 57 1022.9
20220812073543 68 0 0.0 2.0 0.00 0.00 0.00 58 1022.9
20220812073055 68 0 0.0 2.0 0.00 0.00 0.00 58 1023.0
20220812072542 68 0 0.0 1.0 0.00 0.00 0.00 58 1022.9
20220812072043 68 0 0.0 1.0 0.00 0.00 0.00 60 1022.8
20220812071601 68 0 0.0 1.0 0.00 0.00 0.00 59 1022.8
20220812071043 68 294 0.0 1.0 0.00 0.00 0.00 59 1022.7
20220812070543 69 0 0.0 1.0 0.00 0.00 0.00 58 1022.7
20220812070057 69 0 0.0 1.0 0.00 0.00 0.00 59 1022.7
20220812065541 69 0 0.0 1.0 0.00 0.00 0.00 60 1022.8
20220812065038 69 0 0.0 1.0 0.00 0.00 0.00 57 1022.8
20220812064624 70 0 0.0 0.0 0.00 0.00 0.00 56 1022.8
20220812064039 70 0 0.0 0.0 0.00 0.00 0.00 54 1022.8
20220812063541 70 0 0.0 1.0 0.00 0.00 0.00 56 1022.8
20220812063050 70 0 0.0 1.0 0.00 0.00 0.00 55 1022.9
20220812062538 70 294 0.0 0.0 0.00 0.00 0.00 55 1023.0
20220812062042 70 0 0.0 1.0 0.00 0.00 0.00 57 1023.1
20220812061600 71 0 0.0 2.0 0.00 0.00 0.00 57 1023.1
20220812061046 71 0 0.0 2.0 0.00 0.00 0.00 56 1023.2
20220812060542 71 0 0.0 1.0 0.00 0.00 0.00 56 1023.2
20220812060115 71 0 0.0 1.0 0.00 0.00 0.00 56 1023.1
20220812055542 71 0 0.0 2.0 0.00 0.00 0.00 55 1023.1
20220812055044 72 0 0.0 2.0 0.00 0.00 0.00 56 1023.2
20220812054624 72 0 0.0 2.0 0.00 0.00 0.00 55 1023.2
20220812054041 72 294 0.0 1.0 0.00 0.00 0.00 54 1023.2
20220812053541 72 294 0.0 0.0 0.00 0.00 0.00 53 1023.2
20220812053113 73 0 0.0 2.0 0.00 0.00 0.00 53 1023.0
20220812052539 73 0 0.0 2.0 0.00 0.00 0.00 51 1023.0
20220812052039 73 0 0.0 2.0 0.00 0.00 0.00 51 1023.0
20220812051628 73 0 0.0 2.0 0.00 0.00 0.00 51 1022.9
20220812051043 73 0 0.0 2.0 0.00 0.00 0.00 50 1022.8
20220812050545 74 336 0.0 2.0 0.00 0.00 0.00 50 1022.8
20220812050102 74 336 0.0 2.0 0.00 0.00 0.00 50 1022.7
20220812045538 74 0 0.0 2.0 0.00 0.00 0.00 51 1022.7
20220812045040 74 336 0.0 1.0 0.00 0.00 0.00 49 1022.7
20220812044602 75 336 0.0 0.0 0.00 0.00 0.00 49 1022.5
20220812044046 75 0 0.0 1.0 0.00 0.00 0.00 50 1022.5
20220812043544 75 0 0.0 2.0 0.00 0.00 0.00 51 1022.5
20220812043100 75 0 0.0 2.0 0.00 0.00 0.00 51 1022.5
20220812042541 76 0 0.0 0.0 0.00 0.00 0.00 48 1022.5
20220812042049 76 0 0.0 2.0 0.00 0.00 0.00 48 1022.5
20220812041625 76 0 0.0 2.0 0.00 0.00 0.00 49 1022.6
20220812041045 76 282 0.0 2.0 0.00 0.00 0.00 46 1022.5
20220812040544 76 0 0.0 3.0 0.00 0.00 0.00 47 1022.5
20220812040107 76 0 0.0 3.0 0.00 0.00 0.00 47 1022.3
20220812035547 77 0 1.0 3.0 0.00 0.00 0.00 46 1022.3
20220812035043 77 0 0.0 3.0 0.00 0.00 0.00 46 1022.3
20220812034615 77 0 0.0 2.0 0.00 0.00 0.00 45 1022.3
20220812034043 78 172 0.0 2.0 0.00 0.00 0.00 46 1022.4
20220812033544 78 0 0.0 1.0 0.00 0.00 0.00 45 1022.3
20220812033111 78 0 0.0 1.0 0.00 0.00 0.00 46 1022.2
20220812032541 79 0 0.0 1.0 0.00 0.00 0.00 45 1022.2
20220812032046 79 0 0.0 1.0 0.00 0.00 0.00 45 1022.2
20220812031615 79 0 0.0 2.0 0.00 0.00 0.00 44 1022.2
20220812031040 79 0 0.0 2.0 0.00 0.00 0.00 43 1022.1
20220812030541 79 172 0.0 2.0 0.00 0.00 0.00 43 1022.1
20220812030057 79 163 0.0 2.0 0.00 0.00 0.00 43 1022.0
20220812025546 79 156 0.0 3.0 0.00 0.00 0.00 44 1022.0
20220812025043 80 160 0.0 3.0 0.00 0.00 0.00 45 1022.0
20220812024552 80 0 0.0 3.0 0.00 0.00 0.00 48 1021.8
20220812024041 81 0 0.0 3.0 0.00 0.00 0.00 46 1021.8
20220812023540 81 17 0.0 2.0 0.00 0.00 0.00 45 1021.6
20220812023201 81 0 0.0 0.0 0.00 0.00 0.00 45 1021.5
20220812022542 82 0 0.0 1.0 0.00 0.00 0.00 45 1021.4
20220812022041 82 0 0.0 1.0 0.00 0.00 0.00 45 1021.3
20220812021608 83 0 0.0 1.0 0.00 0.00 0.00 47 1021.3
20220812021043 83 0 0.0 1.0 0.00 0.00 0.00 46 1021.2
20220812020539 83 0 0.0 1.0 0.00 0.00 0.00 43 1021.2
20220812020058 84 0 0.0 0.0 0.00 0.00 0.00 41 1021.1
20220812015540 84 0 0.0 1.0 0.00 0.00 0.00 42 1021.1
20220812015043 85 0 0.0 1.0 0.00 0.00 0.00 41 1021.1
20220812014602 85 0 0.0 2.0 0.00 0.00 0.00 41 1021.1
20220812014051 85 0 0.0 2.0 0.00 0.00 0.00 41 1021.0
20220812013543 86 0 0.0 2.0 0.00 0.00 0.00 41 1021.1
20220812013051 86 0 0.0 2.0 0.00 0.00 0.00 40 1021.1
20220812012544 86 0 0.0 2.0 0.00 0.00 0.00 38 1021.0
20220812012044 86 0 0.0 3.0 0.00 0.00 0.00 39 1021.0
20220812011612 87 0 0.0 3.0 0.00 0.00 0.00 39 1021.0
20220812011040 87 0 0.0 2.0 0.00 0.00 0.00 39 1021.1
20220812010543 87 0 0.0 3.0 0.00 0.00 0.00 38 1021.0
20220812010104 88 275 0.0 3.0 0.00 0.00 0.00 42 1021.0
20220812005542 88 258 0.0 3.0 0.00 0.00 0.00 40 1021.0
20220812005040 88 0 0.0 2.0 0.00 0.00 0.00 40 1021.1
20220812004604 89 0 0.0 2.0 0.00 0.00 0.00 40 1021.1
20220812004043 89 0 0.0 2.0 0.00 0.00 0.00 39 1021.3
20220812003544 89 244 0.0 3.0 0.00 0.00 0.00 40 1021.4
20220812003055 89 286 1.0 3.0 0.00 0.00 0.00 38 1021.3
20220812002540 89 287 0.0 4.0 0.00 0.00 0.00 37 1021.3
20220812002045 89 250 1.0 4.0 0.00 0.00 0.00 36 1021.4
20220812001600 90 0 0.0 2.0 0.00 0.00 0.00 38 1021.4
20220812001041 90 266 0.0 2.0 0.00 0.00 0.00 38 1021.4
20220812000544 90 0 0.0 3.0 0.00 0.00 0.00 38 1021.4
20220812000128 90 202 1.0 3.0 0.00 0.00 0.00 38 1021.4
20220811235540 90 236 1.0 2.0 0.00 0.00 0.00 37 1021.6
20220811235043 91 0 0.0 2.0 0.00 0.00 0.00 38 1021.6
20220811234558 91 0 0.0 3.0 0.00 0.00 0.00 38 1021.6
20220811234044 91 265 0.0 3.0 0.00 0.00 0.00 36 1021.6
20220811233552 91 211 0.0 3.0 0.00 0.00 0.00 34 1021.6
20220811233143 91 213 1.0 3.0 0.00 0.00 0.00 37 1021.7
20220811232545 91 237 0.0 2.0 0.00 0.00 0.00 34 1021.8
20220811232046 92 0 0.0 2.0 0.00 0.00 0.00 38 1021.8
20220811231609 92 0 0.0 2.0 0.00 0.00 0.00 33 1021.9
20220811231045 92 309 1.0 2.0 0.00 0.00 0.00 31 1021.9
20220811230544 92 0 0.0 3.0 0.00 0.00 0.00 30 1021.9
20220811230105 93 0 0.0 4.0 0.00 0.00 0.00 29 1021.9
20220811225545 93 0 1.0 4.0 0.00 0.00 0.00 35 1021.9
20220811225043 93 348 0.0 4.0 0.00 0.00 0.00 30 1021.9
20220811224556 94 0 0.0 4.0 0.00 0.00 0.00 34 1021.9
20220811224043 94 47 0.0 3.0 0.00 0.00 0.00 33 1021.9
20220811223550 94 10 1.0 3.0 0.00 0.00 0.00 29 1021.8
20220811223104 93 348 0.0 2.0 0.00 0.00 0.00 30 1021.9
20220811222543 92 72 0.0 5.0 0.00 0.00 0.00 33 1021.9
20220811222047 92 123 1.0 5.0 0.00 0.00 0.00 29 1022.1
20220811221621 93 116 1.0 4.0 0.00 0.00 0.00 32 1022.1
20220811221045 93 36 1.0 4.0 0.00 0.00 0.00 32 1022.1
20220811220542 94 162 0.0 4.0 0.00 0.00 0.00 32 1022.2
20220811220107 94 119 1.0 5.0 0.00 0.00 0.00 29 1022.3
20220811215541 94 47 2.0 5.0 0.00 0.00 0.00 29 1022.4
20220811215040 94 32 0.0 8.0 0.00 0.00 0.00 29 1022.3
20220811214659 94 0 1.0 8.0 0.00 0.00 0.00 32 1022.4
20220811214040 94 42 1.0 5.0 0.00 0.00 0.00 29 1022.5
20220811213548 94 0 2.0 5.0 0.00 0.00 0.00 30 1022.6
20220811213113 93 79 1.0 4.0 0.00 0.00 0.00 33 1022.7
20220811212543 93 119 1.0 5.0 0.00 0.00 0.00 31 1022.7
20220811212043 93 24 3.0 5.0 0.00 0.00 0.00 31 1022.7
20220811211601 93 24 1.0 5.0 0.00 0.00 0.00 29 1022.7
20220811211049 93 39 2.0 7.0 0.00 0.00 0.00 32 1022.8
20220811210547 93 0 1.0 7.0 0.00 0.00 0.00 29 1022.8
20220811210119 93 86 3.0 6.0 0.00 0.00 0.00 30 1022.7
20220811205546 93 44 3.0 6.0 0.00 0.00 0.00 32 1022.7
20220811205046 93 96 2.0 6.0 0.00 0.00 0.00 31 1022.8
20220811204606 92 38 1.0 4.0 0.00 0.00 0.00 34 1023.0
20220811204040 92 10 1.0 8.0 0.00 0.00 0.00 33 1023.0
20220811203546 92 109 4.0 8.0 0.00 0.00 0.00 33 1023.1
20220811203109 92 43 2.0 8.0 0.00 0.00 0.00 35 1023.1
20220811202544 93 101 2.0 8.0 0.00 0.00 0.00 34 1023.3
20220811202042 93 31 2.0 7.0 0.00 0.00 0.00 36 1023.3
20220811201604 92 227 1.0 4.0 0.00 0.00 0.00 36 1023.3
20220811201041 92 0 1.0 4.0 0.00 0.00 0.00 36 1023.5
20220811200541 92 128 2.0 4.0 0.00 0.00 0.00 36 1023.6
20220811200128 92 123 0.0 4.0 0.00 0.00 0.00 36 1023.7
20220811195540 92 0 0.0 4.0 0.00 0.00 0.00 37 1023.8
20220811195040 91 0 0.0 3.0 0.00 0.00 0.00 38 1023.8
20220811194606 91 281 0.0 5.0 0.00 0.00 0.00 37 1024.0
20220811194044 91 0 1.0 7.0 0.00 0.00 0.00 38 1024.1
20220811193542 91 42 2.0 7.0 0.00 0.00 0.00 39 1024.2
20220811193124 90 24 1.0 5.0 0.00 0.00 0.00 37 1024.2
20220811192546 90 292 1.0 6.0 0.00 0.00 0.00 38 1024.2
20220811192048 89 52 2.0 6.0 0.00 0.00 0.00 39 1024.3
20220811191629 89 252 2.0 5.0 0.00 0.00 0.00 37 1024.3